Newburgh, NY

4:07 PM EST on December 11, 2017 (GMT -0500)
Stewart International

Weather History for KSWF - March, 2013

Change the Weather History Date:

Tuesday, March 26, 2013

  Actual Average Record
Temperature  
Mean Temperature 40 °F -  
Max Temperature 48 °F 49 °F 72 °F (1987)
Min Temperature 33 °F 31 °F 14 °F (1983)
Degree Days  
Heating Degree Days 24    
Moisture  
Dew Point 26 °F    
Average Humidity 58    
Maximum Humidity 75    
Minimum Humidity 40    
Precipitation  
Precipitation 0.00 in - - ()
Sea Level Pressure  
Sea Level Pressure 29.74 in    
Wind  
Wind Speed 9 mph (NW)    
Max Wind Speed 17 mph    
Max Gust Speed 28 mph    
Visibility 17 miles    
Events      
Averages and records for this station are not official NWS values.
T = Trace of Precipitation, MM = Missing Value Source: NWS Daily Summary

Daily Weather History Graph

Daily Weather History Graph

Search for Another Location

Airport or City:

Trip Planner

Search our weather history database for the weather conditions in past years. The results will help you decide how hot, cold, wet, or windy it might be!

Date:

Astronomy

Mar. 26, 2013 Rise Set
Actual Time 6:49 AM EDT 7:15 PM EDT
Civil Twilight 6:21 AM EDT 7:43 PM EDT
Nautical Twilight 5:48 AM EDT 8:15 PM EDT
Astronomical Twilight 5:15 AM EDT 8:49 PM EDT
Moon 6:49 PM EDT (3/26) 6:04 AM EDT (3/26)
Length of Visible Light 13h 21m
Length of Day
12h 26m
Waxing Gibbous, 99% of the Moon is Illuminated
Mar 26
Waxing Gibbous
Mar 27
Full
Apr 3
Last Quarter
Apr 10
New
Apr 18
First Quarter

Hourly Weather History & Observations

Time (EDT) Temp. Windchill Dew Point Humidity Pressure Visibility Wind Dir Wind Speed Gust Speed Precip Events Conditions
12:45 AM 37.4 °F 30.8 °F 28.4 °F 70% 29.62 in 15.0 mi North 9.2 mph - N/A   Mostly Cloudy
1:45 AM 37.4 °F 30.8 °F 26.6 °F 65% 29.62 in 20.0 mi North 9.2 mph - N/A   Scattered Clouds
2:45 AM 35.6 °F 29.9 °F 26.6 °F 70% 29.63 in 20.0 mi NNW 6.9 mph - N/A   Scattered Clouds
3:45 AM 33.8 °F 28.6 °F 26.6 °F 75% 29.64 in 15.0 mi WNW 5.8 mph - N/A   Scattered Clouds
6:45 AM 33.8 °F 28.6 °F 26.6 °F 75% 29.68 in 20.0 mi West 5.8 mph - N/A   Mostly Cloudy
7:45 AM 35.6 °F 29.2 °F 26.6 °F 70% 29.70 in 20.0 mi WSW 8.1 mph - N/A   Overcast
8:45 AM 35.6 °F 29.2 °F 28.4 °F 75% 29.72 in 20.0 mi West 8.1 mph - N/A   Overcast
9:45 AM 41.0 °F 35.8 °F 28.4 °F 61% 29.73 in 20.0 mi WNW 8.1 mph - N/A   Scattered Clouds
10:45 AM 44.6 °F 38.8 °F 28.4 °F 53% 29.73 in 20.0 mi WNW 11.5 mph - N/A   Mostly Cloudy
12:45 PM 48.2 °F - 28.4 °F 46% 29.74 in 20.0 mi North 11.5 mph 19.6 mph N/A   Mostly Cloudy
1:45 PM 48.2 °F - 28.4 °F 46% 29.73 in 20.0 mi North 11.5 mph 27.6 mph N/A   Mostly Cloudy
3:45 PM 46.4 °F 41.1 °F 24.8 °F 43% 29.75 in 20.0 mi NNW 11.5 mph 23.0 mph N/A   Mostly Cloudy
4:45 PM 46.4 °F 41.1 °F 24.8 °F 43% 29.75 in 15.0 mi NNW 11.5 mph 25.3 mph N/A   Mostly Cloudy
5:45 PM 46.4 °F 39.5 °F 23.0 °F 40% 29.76 in 15.0 mi NNW 17.3 mph 25.3 mph N/A   Mostly Cloudy
6:45 PM 44.6 °F 38.8 °F 23.0 °F 43% 29.78 in 15.0 mi NNW 11.5 mph - N/A   Scattered Clouds
7:45 PM 41.0 °F 37.1 °F 23.0 °F 49% 29.81 in 10.0 mi Variable 5.8 mph - N/A   Scattered Clouds
8:45 PM 39.2 °F 35.0 °F 23.0 °F 52% 29.83 in 10.0 mi Variable 5.8 mph - N/A   Scattered Clouds
9:45 PM 39.2 °F 35.0 °F 23.0 °F 52% 29.85 in 10.0 mi Variable 5.8 mph - N/A   Scattered Clouds
10:45 PM 35.6 °F 29.9 °F 23.0 °F 60% 29.86 in 15.0 mi WNW 6.9 mph - N/A   Scattered Clouds
11:45 PM 33.8 °F 27.0 °F 24.8 °F 70% 29.86 in 15.0 mi WNW 8.1 mph - N/A   Scattered Clouds